weather.gov     
National Weather Service

Regional Weather Roundup
NWS Homepage
This page is being discontinued on March 12, 2014.
The same data is available at this site. Please update your bookmarks.
Thank you, and we apologize for the inconvenience.
Please send an email to SR-SRH.Webmaster@noaa.gov with any concerns.


Current Version
Previous Version:    01  02  03  04  05  06  07  08  09  10  11  12  13  14  15  16  17  18  19  20  21  22  23  24  25  26  
[Printable]
862
ASUS41 KPHI 231310
RWRPHI

REGIONAL WEATHER ROUNDUP
NATIONAL WEATHER SERVICE MOUNT HOLLY NJ
900 AM EDT WED APR 23 2014

NOTE:  "FAIR" INDICATES FEW OR NO CLOUDS BELOW 12,000 FEET WITH NO
SIGNIFICANT WEATHER AND/OR OBSTRUCTIONS TO VISIBILITY.

 * = STATION DOES NOT REPORT PRECIPITATION (E.G. RAIN, SNOW, ETC.)
        OR FOG.

NJZ015>026-231400-
SOUTHERN NEW JERSEY

CITY           SKY/WX    TMP DP  RH WIND       PRES   REMARKS
POMONA         SUNNY     53  32  44 NW24G36   29.65S
RIO GRANDE*    SUNNY     52  34  50 NW18G28   29.69R
MILLVILLE      SUNNY     52  34  50 NW21G32   29.69S
WRIGHTSTOWN    CLOUDY    52  34  51 NW18G26   29.63R
MOUNT HOLLY    CLOUDY    50  33  52 W15G30    29.67R
TRENTON        CLOUDY    50  34  54 NW15G29   29.64S

$$
NJZ001>014-231400-
NORTHERN NEW JERSEY

CITY           SKY/WX    TMP DP  RH WIND       PRES   REMARKS
SUSSEX         CLOUDY    48  36  63 CALM      29.62R
ANDOVER*         N/A     45  35  68 N10G17    29.63R
MORRISTOWN     PTSUNNY   50  36  57 NW13G30   29.61R
NEWARK         PTSUNNY   51  34  52 NW24G36   29.60R
TETERBORO      CLOUDY    52  35  52 NW17G24   29.59R
CALDWELL       PTSUNNY   50  35  56 NW15G23   29.61R
SOMERVILLE     CLOUDY    50  34  54 NW15G30   29.62R
ALLAIRE*       CLOUDY    52  30  43 NW16G35   29.61R
TOMS RIVER*    PTSUNNY   45  34  65 NW21G26   29.63R

$$
PAZ043-044-047-054-055-060>062-066>071-231400-
EASTERN PENNSYLVANIA

CITY           SKY/WX    TMP DP  RH WIND       PRES   REMARKS
PHILADELPHIA   PTSUNNY   51  31  46 NW25G36   29.70R
NORTH PHILA    CLOUDY    51  34  52 NW16G22   29.69R
BLUE BELL      CLOUDY    50  34  53 W18G24    29.68R
DOYLESTOWN     PTSUNNY   48  35  60 NW20G26   29.65R
QUAKERTOWN*    PTSUNNY   46  36  66 W10G17    29.68R
POTTSTOWN      CLOUDY    47  34  60 NW14G28   29.71R
LANCASTER      SUNNY     48  33  56 NW21G29   29.73R
COATESVILLE    PTSUNNY   46  32  57 NW20G29   29.72R
READING        MOSUNNY   49  34  56 NW20G26   29.71R
ALLENTOWN      CLOUDY    47  33  58 NW16G26   29.67R
MOUNT POCONO   CLOUDY    38  33  82 NW21G31   29.62R WCI  28
HAZLETON       CLOUDY    41  32  70 W20G30    29.70R
WILKES BARRE   CLOUDY    43  34  70 NW17G28   29.69R

$$
DEZALL-MDZ008-012-015-019-020-231400-
DELAWARE AND EASTERN MARYLAND

CITY           SKY/WX    TMP DP  RH WIND       PRES   REMARKS
WILMINGTON     SUNNY     51  32  48 NW23G40   29.73R
DOVER          SUNNY     52  34  49 W18G33    29.68R
GEORGETOWN     SUNNY     54  34  46 NW17G29   29.69S
EASTON         MOSUNNY   54  37  54 NW21G33   29.79R
PATUXENT       MOSUNNY   54  35  48 NW20G31   29.75R
OCEAN CITY     SUNNY     56  36  47 NW12G25   29.69S
WALLOPS ISLAND MOSUNNY   57  35  43 NW20G33   29.72R
CAMBRIDGE      SUNNY     54  32  43 NW21G30   29.75R
SALISBURY      SUNNY     57  35  43 NW16G33   29.70S

$$
PAZ001-021-NYZ056-072-MDZ011-DCZ001-231400-
OTHER NEARBY LOCATIONS

CITY           SKY/WX    TMP DP  RH WIND       PRES   REMARKS
HARRISBURG     MOSUNNY   49  33  54 NW23      29.76R
STATE COLLEGE  CLOUDY    41  30  65 W9G20     29.81R
WILLIAMSPORT   CLOUDY    46  32  58 W17G30    29.74R
BINGHAMTON     CLOUDY    38  35  89 NW10G22   29.66R WCI  31
NEW YORK CITY  CLOUDY    50  33  52 NW9G24    29.61R
BALTIMORE      PTSUNNY   50  31  48 NW22G36   29.78R
WASHINGTON DC  MOSUNNY   53  33  46 NW22G29   29.81R

$$




U.S. Dept. of Commerce
NOAA National Weather Service
1325 East West Highway
Silver Spring, MD 20910
E-mail: w-nws.webmaster@noaa.gov
Page last modified: May 16, 2007
NATIONAL WEATHER SERVICE: for Safety, for Work, for Fun - FOR LIFE